This demonstration page uses our WeatherBlox Daily Observations layout. Learn more.

38.89511, -77.03637

Hourly Observations for February 10, 2015

Temp ( °F °C ) Dew Point ( °F °C ) Humidity (%) Winds ( mph kmh ) Pressure ( in mb ) Visibility ( mi km ) Precip ( " mm )
12:52 am 00:52 Cloudy with Light Rain 34 1 28 -2 81 81 NNE 12 19 29.97 1015 5 8.04672 0.001 0.001
1:38 am 01:38 Cloudy with Light Drizzle 34 1 28 -2 81 81 NNE 10 17 29.97 1015 5 8.04672 0 0
1:52 am 01:52 Cloudy with Light Rain 36 2 28 -2 75 75 NNE 9 15 29.97 1015 7 11.265408 0.02 0.508
2:52 am 02:52 Cloudy 34 1 28 -2 81 81 NNE 16 26 29.97 1015 10 16.09344 0.001 0.001
3:52 am 03:52 Cloudy with Light Drizzle 34 1 28 -2 81 81 NNE 17 28 29.97 1015 10 16.09344 0.001 0.001
4:22 am 04:22 Cloudy with Light Drizzle 34 1 27 -3 75 75 NNE 13 20 29.97 1015 10 16.09344 0 0
4:29 am 04:29 Cloudy 34 1 27 -3 75 75 N 9 15 29.97 1015 10 16.09344 0.001 0.001
4:52 am 04:52 Cloudy 34 1 27 -3 75 75 N 15 24 29.97 1015 9 14.484096 0.001 0.001
5:34 am 05:34 Cloudy with Light Snow 34 1 27 -3 75 75 NNE 14 22 30 1016 9 14.484096 0 0
5:42 am 05:42 Cloudy with Light Snow 34 1 27 -3 75 75 NNE 14 22 30 1016 9 14.484096 0 0
5:52 am 05:52 Cloudy with Light Snow 34 1 27 -3 75 75 NNE 14 22 30 1016 9 14.484096 0.001 0.001
6:52 am 06:52 Cloudy 34 1 27 -3 75 75 N 16 26 30.03 1017 10 16.09344 0.001 0.001
7:52 am 07:52 Cloudy 34 1 25 -4 70 70 N 15 24 30.03 1017 10 16.09344 0 0
8:36 am 08:36 Cloudy 34 1 25 -4 70 70 N 17 28 30.03 1017 10 16.09344 0 0
8:52 am 08:52 Cloudy 34 1 25 -4 70 70 N 16 26 30.03 1017 10 16.09344 0 0
9:52 am 09:52 Cloudy 34 1 27 -3 75 75 NNE 15 24 30.03 1017 10 16.09344 0 0
10:52 am 10:52 Cloudy 36 2 27 -3 70 70 N 15 24 30.06 1018 10 16.09344 0 0
11:52 am 11:52 Cloudy 36 2 27 -3 70 70 N 17 28 30.03 1017 10 16.09344 0 0
12:52 pm 12:52 Cloudy 37 3 28 -2 70 70 N 17 28 30.03 1017 10 16.09344 0 0
1:52 pm 13:52 Cloudy 39 4 28 -2 65 65 N 14 22 30 1016 10 16.09344 0 0
2:52 pm 14:52 Cloudy 39 4 28 -2 65 65 N 15 24 30 1016 10 16.09344 0 0
3:52 pm 15:52 Cloudy 39 4 28 -2 65 65 N 17 28 30 1016 10 16.09344 0 0
4:52 pm 16:52 Mostly Cloudy 39 4 28 -2 65 65 N 17 28 30.03 1017 10 16.09344 0 0
5:05 pm 17:05 Mostly Cloudy 39 4 27 -3 61 61 N 18 30 30.03 1017 10 16.09344 0 0
5:52 pm 17:52 Partly Cloudy 37 3 27 -3 65 65 N 14 22 30.03 1017 10 16.09344 0 0
6:52 pm 18:52 Partly Cloudy 37 3 25 -4 60 60 N 21 33 30.06 1018 10 16.09344 0 0
7:52 pm 19:52 Mostly Clear 37 3 25 -4 60 60 N 16 26 30.06 1018 10 16.09344 0 0
8:52 pm 20:52 Clear 36 2 25 -4 65 65 N 13 20 30.06 1018 10 16.09344 0 0
9:52 pm 21:52 Clear 34 1 23 -5 65 65 N 14 22 30.06 1018 10 16.09344 0 0
10:52 pm 22:52 Clear 34 1 21 -6 60 60 N 16 26 30.06 1018 10 16.09344 0 0
11:52 pm 23:52 Clear 34 1 21 -6 60 60 N 12 19 30.06 1018 10 16.09344 0 0

Powered by AerisWeather